{"data":{"norad_id":54669,"intl_designator":"2022-166AD","name":"ONEWEB-0605","alt_names":[],"object_type":"PAYLOAD","status":"ACTIVE","operator":null,"country":"UK","launch_date":"2022-12-08","launch_site_code":"AFETR","launch_vehicle":null,"mission":null,"orbit_class":"UNKNOWN","rcs_meters":null,"size_class":null,"mass_kg":null,"dimensions":null,"purposes":["comms"],"wikipedia_slug":null,"has_3d_model":false,"image_url":null,"decayed_at":null,"tle_current":{"epoch":"2026-09-19T14:34:10.477344Z","epoch_age_seconds":99167,"freshness":"FRESH","line1":"1 54669U 22166AD  26262.60706571  .00000093  00000+0  19448-3 0  9997","line2":"2 54669  87.9277 225.1918 0002255  95.6122 264.5269 13.21825154183984","mean_motion":13.21825154,"eccentricity":0.0002255,"inclination_deg":87.9277,"raan_deg":225.1918,"arg_perigee_deg":95.6122,"mean_anomaly_deg":264.5269,"bstar":0.00019448,"rev_number":18398,"period_min":108.94027819356,"perigee_km":1176.0527383306,"apogee_km":1179.4604463407,"semimajor_km":7555.8935923357,"source":"CELESTRAK","updated_at":"2026-09-20T09:00:44.746935Z"}}}